Location: Fontevrault
(47.1823°N, 0.0493°E)
Time: 04:24:23
(UTC+00:00)

Meteor 1-21 Rocket - Pass Details

Date: 23 October 2021
Orbit: 834 x 907 km, 81.2° (Epoch: 07 December)

Event Time Altitude Azimuth Distance (km) Brightness Sun altitude
Rises 17:31:57 0° 348° (NNW) 3,512 7.4 -6.5°
Reaches altitude 10° 17:34:24 10° 349° (N) 2,577 6.8 -6.9°
Maximum altitude 17:40:19 88° 79° (E) 910 4.4 -7.9°
Drops below altitude 10° 17:46:14 10° 170° (S) 2,582 6.7 -8.9°
Sets 17:48:41 0° 170° (S) 3,520 7.4 -9.3°
